Location: Chervonnoye
(48.6000°N, 34.4000°E)
Time: 21:57:19
(UTC+00:00)

RS-44 - Pass Details

Date: 05 December 2022
Orbit: 1174 x 1511 km, 82.5° (Epoch: 01 February)

Event Time Altitude Azimuth Distance (km) Brightness Sun altitude
Exits shadow 02:37:54 31° 320° (NW) 2,347 ? -25.5°
Drops below altitude 10° 02:43:51 10° 359° (N) 3,661 ? -24.5°
Sets 02:47:15 0° 9° (N) 4,661 ? -24.0°
